Date String (YYYY-MM-DD hh:mm:ss) UTC,Instrument flags,Ambient pressure (hPa),Sample flow (lpm),Bypass flow (lpm),Sample temperature (°C),Ambient temperature (°C),ASC tube jacket temperature (°C),LED temperature (°C),Box temperature (°C),Sample RH (%),Span deviation,Mass concentration (μg/m³),Mass concentration (μg/m³),Mass concentration (μg/m³)
DateTimeUTC,F1_M11,P_M11,Q1_M11,Q2_M11,T1_M11,T2_M11,T3_M11,T4_M11,T5_M11,U1_M11,ZSPAN_M11,X0_M11,X2_M11,X1_M11
2023-02-09 00:00:00,,0822.1,5.00,0.00,23.2,21.8,00.0,32.0,24.9,08.0,0000.0,0006.49,0001.39,0000.71
2023-02-09 00:01:00,,0822.0,4.99,0.00,23.2,21.8,00.0,32.0,25.0,08.0,0000.0,0006.73,0001.46,0000.72
2023-02-09 00:02:00,,0822.0,4.99,0.00,23.2,21.8,00.0,32.0,24.9,08.3,0000.0,0007.18,0001.56,0000.73
2023-02-09 00:03:00,,0822.0,4.98,0.00,23.2,21.8,00.0,32.0,24.9,08.2,0000.0,0008.17,0001.73,0000.72
2023-02-09 00:04:00,,0822.0,4.99,0.00,23.2,21.8,00.0,32.0,24.9,08.0,0000.0,0009.32,0001.95,0000.75
2023-02-09 00:05:00,,0822.0,4.98,0.00,23.2,21.9,00.0,32.0,24.9,07.9,0000.0,0009.88,0002.14,0000.76
2023-02-09 00:06:00,,0822.0,5.02,0.00,23.2,21.8,00.0,32.0,24.9,07.8,0000.0,0010.60,0002.38,0000.77
2023-02-09 00:07:00,,0822.0,5.01,0.00,23.2,21.8,00.0,32.0,24.9,08.0,0000.0,0010.57,0002.46,0000.77
2023-02-09 00:08:00,,0822.0,5.02,0.00,23.2,21.8,00.0,32.0,25.0,08.0,0000.0,0010.31,0002.49,0000.76
2023-02-09 00:09:00,,0821.9,5.03,0.00,23.2,21.9,00.0,32.0,25.0,07.9,0000.0,0009.99,0002.49,0000.74
2023-02-09 00:10:00,,0822.0,4.98,0.00,23.2,21.8,00.0,32.0,25.0,08.0,0000.0,0009.18,0002.41,0000.72
2023-02-09 00:11:00,,0821.8,5.02,0.00,23.2,21.8,00.0,32.0,25.0,08.0,0000.0,0008.95,0002.33,0000.71
2023-02-09 00:12:00,,0821.9,4.99,0.00,23.2,21.8,00.0,32.0,25.0,08.0,0000.0,0008.90,0002.29,0000.69
2023-02-09 00:13:00,,0821.8,4.99,0.00,23.2,21.8,00.0,32.1,24.9,08.0,0000.0,0008.93,0002.28,0000.68
2023-02-09 00:14:00,,0821.8,5.01,0.00,23.2,21.8,00.0,32.1,24.9,07.9,0000.0,0009.18,0002.40,0000.71
2023-02-09 00:15:00,,0821.8,5.01,0.00,23.2,21.8,00.0,32.1,24.9,07.7,0000.0,0008.03,0002.29,0000.70
2023-02-09 00:16:00,,0821.8,5.01,0.00,23.2,21.8,00.0,32.1,25.0,07.6,0000.0,0007.52,0002.12,0000.69
2023-02-09 00:17:00,,0821.7,4.99,0.00,23.2,21.8,00.0,32.1,25.0,07.6,0000.0,0005.86,0001.88,0000.69
2023-02-09 00:18:00,,0821.7,5.01,0.00,23.2,21.9,00.0,32.1,25.0,07.6,0000.0,0005.47,0001.77,0000.68
2023-02-09 00:19:00,,0821.7,5.00,0.00,23.2,21.9,00.0,32.1,25.0,07.6,0000.0,0005.10,0001.65,0000.68
2023-02-09 00:20:00,,0821.6,5.01,0.00,23.2,21.9,00.0,32.1,25.0,07.6,0000.0,0005.06,0001.64,0000.68
2023-02-09 00:21:00,,0821.7,4.98,0.00,23.2,21.9,00.0,32.1,25.0,07.6,0000.0,0004.87,0001.63,0000.67
2023-02-09 00:22:00,,0821.6,5.03,0.00,23.2,21.9,00.0,32.1,25.0,07.6,0000.0,0004.88,0001.65,0000.67
2023-02-09 00:23:00,,0821.6,4.99,0.00,23.2,21.9,00.0,32.1,25.0,07.6,0000.0,0005.02,0001.66,0000.68
2023-02-09 00:24:00,,0821.7,5.00,0.00,23.2,21.9,00.0,32.1,25.0,07.7,0000.0,0005.45,0001.73,0000.69
2023-02-09 00:25:00,,0821.7,5.02,0.00,23.3,21.9,00.0,32.1,25.0,07.7,0000.0,0006.30,0001.62,0000.68
2023-02-09 00:26:00,,0821.7,4.98,0.00,23.3,21.9,00.0,32.1,25.0,07.7,0000.0,0005.52,0001.45,0000.66
2023-02-09 00:27:00,,0821.7,4.98,0.00,23.3,21.9,00.0,32.1,24.9,07.7,0000.0,0005.66,0001.45,0000.65
2023-02-09 00:28:00,,0821.7,5.00,0.00,23.2,21.8,00.0,32.1,24.9,07.6,0000.0,0005.64,0001.46,0000.64
2023-02-09 00:29:00,,0821.7,4.99,0.00,23.2,21.8,00.0,32.1,24.9,07.6,0000.0,0005.67,0001.48,0000.64
2023-02-09 00:30:00,,0821.7,5.02,0.00,23.2,21.8,00.0,32.1,24.9,07.6,0000.0,0005.66,0001.48,0000.64
2023-02-09 00:31:00,,0821.7,4.98,0.00,23.2,21.8,00.0,32.1,24.9,07.7,0000.0,0005.57,0001.47,0000.63
2023-02-09 00:32:00,,0821.7,5.00,0.00,23.2,21.8,00.0,32.1,24.9,07.7,0000.0,0005.49,0001.43,0000.65
2023-02-09 00:33:00,,0821.7,5.01,0.00,23.2,21.7,00.0,32.1,24.9,07.6,0000.0,0005.47,0001.40,0000.65
2023-02-09 00:34:00,,0821.8,5.00,0.00,23.2,21.8,00.0,32.1,24.9,07.6,0000.0,0005.17,0001.34,0000.65
2023-02-09 00:35:00,,0821.8,4.99,0.00,23.2,21.7,00.0,32.1,24.9,07.6,0000.0,0005.42,0001.22,0000.65
2023-02-09 00:36:00,,0821.8,5.01,0.00,23.2,21.7,00.0,32.1,24.9,07.6,0000.0,0004.27,0001.10,0000.64
2023-02-09 00:37:00,,0821.8,4.98,0.00,23.2,21.7,00.0,32.1,24.9,07.6,0000.0,0004.20,0001.12,0000.64
2023-02-09 00:38:00,,0821.8,4.98,0.00,23.2,21.7,00.0,32.1,24.9,07.6,0000.0,0004.00,0001.09,0000.64
2023-02-09 00:39:00,,0821.8,5.03,0.00,23.2,21.7,00.0,32.1,24.8,07.7,0000.0,0004.70,0001.12,0000.68
2023-02-09 00:40:00,,0821.8,4.96,0.00,23.1,21.6,00.0,32.0,24.9,07.7,0000.0,0005.45,0001.22,0000.71
2023-02-09 00:41:00,,0821.8,4.99,0.00,23.1,21.6,00.0,32.0,24.9,07.8,0000.0,0005.65,0001.30,0000.75
2023-02-09 00:42:00,,0821.7,5.01,0.00,23.1,21.6,00.0,32.0,24.8,07.8,0000.0,0005.82,0001.38,0000.78
2023-02-09 00:43:00,,0821.8,5.01,0.00,23.1,21.6,00.0,32.0,24.8,07.9,0000.0,0005.86,0001.43,0000.80
2023-02-09 00:44:00,,0821.8,5.00,0.00,23.1,21.6,00.0,32.0,24.8,08.0,0000.0,0005.83,0001.46,0000.83
2023-02-09 00:45:00,,0821.8,5.00,0.00,23.1,21.6,00.0,32.0,24.7,08.0,0000.0,0005.86,0001.47,0000.83
2023-02-09 00:46:00,,0821.8,4.99,0.00,23.1,21.5,00.0,32.0,24.6,08.1,0000.0,0006.87,0001.53,0000.85
2023-02-09 00:47:00,,0821.8,5.00,0.00,23.0,21.5,00.0,32.0,24.6,08.1,0000.0,0006.00,0001.59,0000.86
2023-02-09 00:48:00,,0821.8,5.03,0.00,23.0,21.5,00.0,32.0,24.6,08.2,0000.0,0006.76,0001.63,0000.89
2023-02-09 00:49:00,,0821.8,4.98,0.00,23.0,21.5,00.0,32.0,24.7,08.3,0000.0,0007.19,0001.67,0000.91
2023-02-09 00:50:00,,0821.8,4.99,0.00,23.0,21.5,00.0,32.0,24.7,08.5,0000.0,0008.28,0001.70,0000.91
2023-02-09 00:51:00,,0821.8,4.99,0.00,23.0,21.5,00.0,32.0,24.7,08.6,0000.0,0008.02,0001.64,0000.89
2023-02-09 00:52:00,,0821.8,4.98,0.00,23.0,21.4,00.0,32.0,24.6,08.7,0000.0,0007.89,0001.56,0000.87
2023-02-09 00:53:00,,0821.8,5.00,0.00,23.0,21.4,00.0,31.9,24.6,08.8,0000.0,0007.80,0001.51,0000.87
2023-02-09 00:54:00,,0821.9,5.01,0.00,23.0,21.4,00.0,31.9,24.6,08.8,0000.0,0007.79,0001.50,0000.87
2023-02-09 00:55:00,,0821.8,5.01,0.00,23.0,21.4,00.0,31.9,24.6,08.9,0000.0,0007.72,0001.45,0000.86
2023-02-09 00:56:00,,0821.8,5.01,0.00,22.9,21.4,00.0,31.9,24.6,09.0,0000.0,0007.71,0001.47,0000.87
2023-02-09 00:57:00,,0821.8,4.98,0.00,22.9,21.3,00.0,31.9,24.6,09.1,0000.0,0006.49,0001.45,0000.86
2023-02-09 00:58:00,,0821.8,4.99,0.00,22.9,21.3,00.0,31.9,24.6,09.2,0000.0,0006.29,0001.43,0000.86
2023-02-09 00:59:00,,0821.7,5.01,0.00,22.9,21.3,00.0,31.9,24.5,09.3,0000.0,0005.55,0001.39,0000.85
